Terminal Aerodrome Forecast
Issued by NWS

Home | Current Version | Previous Version | Text Only | Print | Product List | Glossary On
Versions: 1 2 3 4 5 6 7 8 9 10 11 12 13 14 15 16 17 18 19 20 21 22 23 24 25 26 27 28 29 30 31 32 33 34 35 36 37
294
FTUS45 KSLC 090257 AAA
TAFOGD
TAF AMD
KOGD 090257Z 0903/0924 30004KT 6SM HZ FEW200
     FM090500 17004KT 3SM BR SKC
     FM090900 VRB03KT 2SM BR SKC
     FM091600 17004KT 5SM HZ SKC=

USA.gov is the U.S. government's official web portal to all federal, state and local government web resources and services.